User: anonymous
Location: Cherry Road
(34.5193°N, 112.0852°W)
Time: 01:25:15
(UTC-07:00)
Language:

HST - Orbit

View from above orbital plane
View from above orbital plane
View from above satellite
View from above satellite

Ground track
Ground track

The orbit data is extracted from the following two-line orbital elements,

1 20580U 90037B   14203.33492002  .00000813  00000-0  43278-4 0   606
2 20580 028.4697 166.0576 0002939 305.2835 180.8018 15.05548951130028
Epoch (UTC): 22 July 2014 08:02:17
Eccentricity: 0.0002939
inclination: 28.4697°
perigee height: 548 km
apogee height: 552 km
right ascension of ascending node: 166.0576°
argument of perigee: 305.2835°
revolutions per day: 15.05548951
mean anomaly at epoch: 180.8018°
orbit number at epoch: 13002

The dashed part of the orbit path shows where the satellite is in the earth's shadow,  

DLR